Location: Ravensburg
(47.7866°N, 9.6124°E)
Time: 09:37:35
(UTC+02:00)

YUBILEINY - Pass Details

Date: 19 March 2026
Orbit: 1477 x 1509 km, 82.5° (Epoch: 17 April)

Event Time Altitude Azimuth Distance (km) Brightness Sun altitude
Rises 00:35:53 0° 353° (N) 4,622 ? -42.8°
Reaches altitude 10° 00:40:54 10° 18° (NNE) 3,633 ? -42.8°
Maximum altitude 00:45:07 14° 48° (NE) 3,310 ? -42.7°
Drops below altitude 10° 00:49:18 10° 77° (ENE) 3,620 ? -42.7°
Sets 00:54:13 0° 101° (ESE) 4,594 ? -42.5°
